FW8523 Weather Reports


time (UTC)temp
C
wind
direction
speed
KPH
gust
KPH
rain 1hr
cm
rain 24hr
cm
rain mn
cm
humidity
%
barometer
mb
20260504081536 20 61 0.0 8.0 0.00 0.03 0.00 79 1016.2
20260504050015 21 70 0.0 4.8 0.00 0.05 0.00 77 1017.5
20260504044513 21 92 0.0 6.4 0.00 0.05 0.00 76 1017.3
20260504043010 21 81 1.6 9.7 0.00 0.05 0.00 76 1017.4
20260504041505 21 115 0.0 8.0 0.00 0.05 0.00 75 1017.5
20260504040004 21 92 1.6 4.8 0.00 0.05 0.00 75 1017.6
20260504034600 21 64 0.0 3.2 0.00 0.05 0.05 74 1017.9
20260504033116 21 61 0.0 4.8 0.00 0.05 0.05 72 1017.8
20260504031604 21 59 1.6 6.4 0.00 0.05 0.05 70 1017.8
20260504030058 22 50 1.6 6.4 0.00 0.05 0.05 70 1017.8
20260504024602 22 67 1.6 9.7 0.00 0.05 0.05 69 1017.7
20260504023058 22 61 3.2 9.7 0.00 0.05 0.05 70 1017.5
20260504021557 22 65 3.2 9.7 0.00 0.05 0.05 70 1017.2
20260504020056 22 54 1.6 9.7 0.00 0.05 0.05 70 1017.3
20260504014558 22 49 3.2 9.7 0.00 0.05 0.05 70 1017.0
20260504013106 22 31 1.6 6.4 0.00 0.05 0.05 70 1016.8
20260504011555 22 32 1.6 9.7 0.00 0.05 0.05 71 1016.6
20260504010056 22 57 3.2 12.9 0.00 0.05 0.05 70 1016.4
20260504004608 22 5 3.2 9.7 0.00 0.05 0.05 69 1016.3
20260504003100 22 33 3.2 9.7 0.00 0.05 0.05 69 1016.1
20260504001557 23 11 4.8 12.9 0.00 0.05 0.05 69 1016.0
20260504000054 23 336 3.2 12.9 0.00 0.05 0.05 70 1015.5
20260503234552 23 351 8.0 17.7 0.00 0.05 0.05 69 1015.8
20260503233051 23 293 4.8 16.1 0.00 0.05 0.05 68 1015.8
20260503231555 23 344 6.4 16.1 0.00 0.05 0.05 69 1015.9
20260503230054 23 360 6.4 16.1 0.00 0.05 0.05 68 1015.8
20260503224550 23 315 8.0 17.7 0.00 0.08 0.05 67 1015.7
20260503223050 23 329 8.0 17.7 0.00 0.08 0.05 68 1015.8
20260503221553 24 331 6.4 16.1 0.00 0.08 0.05 66 1015.8
20260503220049 24 297 8.0 16.1 0.00 0.08 0.05 66 1015.6
20260503214548 25 316 6.4 19.3 0.00 0.15 0.05 65 1015.9
20260503213049 25 342 6.4 19.3 0.00 0.15 0.05 65 1015.7
20260503211547 25 51 8.0 19.3 0.00 0.15 0.05 65 1015.8
20260503210047 25 5 6.4 17.7 0.00 0.15 0.05 64 1015.6
20260503204547 25 288 4.8 17.7 0.00 0.23 0.05 64 1015.9
20260503203046 25 344 6.4 19.3 0.00 0.23 0.05 64 1016.1
20260503201544 25 346 4.8 16.1 0.00 0.23 0.05 63 1016.1
20260503200044 25 67 6.4 14.5 0.00 0.23 0.05 59 1016.5
20260503194548 25 115 4.8 20.9 0.00 0.81 0.05 60 1016.6
20260503193044 25 90 4.8 17.7 0.00 0.81 0.05 62 1016.8
20260503191541 25 145 3.2 14.5 0.00 0.81 0.05 61 1017.0
20260503190050 25 83 4.8 17.7 0.00 0.81 0.05 62 1017.3
20260503184547 24 72 3.2 17.7 0.00 1.27 0.05 62 1017.7
20260503183037 24 53 6.4 16.1 0.00 1.27 0.05 62 1017.8
20260503181538 24 77 6.4 14.5 0.00 1.27 0.05 63 1017.8
20260503180036 24 43 11.3 19.3 0.00 1.27 0.05 62 1018.2
20260503174549 24 58 6.4 16.1 0.00 1.27 0.05 63 1018.1
20260503173034 24 38 9.7 20.9 0.00 1.27 0.05 63 1018.3
20260503171529 24 59 3.2 16.1 0.00 1.27 0.05 66 1018.5